This demonstration page uses our WeatherBlox Daily Observations layout. Learn more.

Left ArrowRight Arrow

34.02893, -84.19858

Hourly Observations for November 5, 2022

Temp ( °F °C ) Dew Point ( °F °C ) Humidity (%) Winds ( mph kmh ) Pressure ( in mb ) Visibility ( mi km ) Precip ( " mm )
12:53 am 00:53 Clear 61 16.1 56 13.3 83 83 Calm 30.11 1020 10 16 0.00 0.00
1:53 am 01:53 Clear 62 16.7 57 13.9 84 84 VRB 3 6 30.09 1019 10 16 0.00 0.00
2:53 am 02:53 Mostly Cloudy 63 17.2 58 14.4 84 84 VRB 6 9 30.09 1019 10 16 0.00 0.00
3:45 am 03:45 Mostly Cloudy 63 17.2 59 15 87 87 VRB 3 6 30.07 1018 10 16 0.00 0.00
3:53 am 03:53 Cloudy 63 17.2 59 15 87 87 VRB 5 7 30.06 1018 10 16 0.00 0.00
4:33 am 04:33 Cloudy 64 17.8 60 15.6 87 87 VRB 3 6 30.07 1018 10 16 0.00 0.00
4:46 am 04:46 Cloudy with Light Rain 63 17.2 60 15.6 90 90 VRB 3 6 30.07 1018 10 16 0.01 0.13
4:53 am 04:53 Cloudy 63 17.2 60 15.6 90 90 VRB 5 7 30.05 1018 10 16 0.01 0.13
5:19 am 05:19 Cloudy 64 17.8 61 16.1 90 90 undefined N/A 30.05 1018 10 16 0.00 0.00
5:53 am 05:53 Cloudy 64 17.8 62 16.7 93 93 VRB 6 9 30.04 1017 10 16 0.00 0.00
6:53 am 06:53 Cloudy 64 17.8 62 16.7 93 93 VRB 6 9 30.06 1018 9 14 0.00 0.00
7:53 am 07:53 Cloudy 64 17.8 62 16.7 93 93 VRB 5 7 30.07 1018 8 13 0.00 0.00
8:14 am 08:14 Cloudy 64 17.8 62 16.7 93 93 ESE 3 6 30.06 1018 7 11 0.00 0.00
8:53 am 08:53 Cloudy with Mist and Fog 64 17.8 63 17.2 96 96 SE 7 11 30.06 1018 5 8 0.00 0.00
9:42 am 09:42 Cloudy 65 18.3 64 17.8 97 97 SSE 5 7 30.08 1019 8 13 0.00 0.00
9:53 am 09:53 Cloudy 66 18.9 64 17.8 93 93 SSE 5 7 30.07 1018 9 14 0.00 0.00
10:53 am 10:53 Cloudy 67 19.4 64 17.8 90 90 S 7 11 30.09 1019 10 16 0.00 0.00
11:53 am 11:53 Cloudy 69 20.6 64 17.8 84 84 SSE 10 17 30.09 1019 10 16 0.00 0.00
12:07 pm 12:07 Cloudy 70 21.1 64 17.8 81 81 SSE 8 13 30.08 1019 10 16 0.00 0.00
12:53 pm 12:53 Cloudy 71 21.7 65 18.3 81 81 S 9 15 30.07 1018 10 16 0.00 0.00
1:00 pm 13:00 Cloudy 71 21.7 64 17.8 79 79 S 8 13 30.06 1018 10 16 0.00 0.00
1:53 pm 13:53 Cloudy 72 22.2 65 18.3 79 79 SSE 8 13 30.05 1018 10 16 0.00 0.00
2:00 pm 14:00 Mostly Cloudy 73 22.8 65 18.3 76 76 S 6 9 30.04 1017 10 16 0.00 0.00
2:53 pm 14:53 Mostly Cloudy 75 23.9 63 17.2 66 66 SSW 10 17 30.03 1017 10 16 0.00 0.00
3:00 pm 15:00 Mostly Cloudy 75 23.9 63 17.2 66 66 SSW 8 13 30.03 1017 10 16 0.00 0.00
3:53 pm 15:53 Cloudy 75 23.9 63 17.2 66 66 SSW 8 13 30.02 1017 10 16 0.00 0.00
4:53 pm 16:53 Cloudy 74 23.3 65 18.3 74 74 Calm 30.01 1016 10 16 0.01 0.25
5:53 pm 17:53 Cloudy 73 22.8 63 17.2 71 71 WSW 6 9 30.02 1017 10 16 0.00 0.00
6:53 pm 18:53 Cloudy 65 18.3 64 17.8 97 97 Calm 30.03 1017 9 14 0.04 1.02
7:53 pm 19:53 Mostly Clear 63 17.2 62 16.7 97 97 Calm 30.02 1017 7 11 0.00 0.00
8:53 pm 20:53 Cloudy 66 18.9 60 15.6 81 81 ESE 6 9 29.99 1016 10 16 0.00 0.00
9:53 pm 21:53 Clear 68 20 58 14.4 70 70 SE 6 9 29.97 1015 10 16 0.00 0.00
10:53 pm 22:53 Mostly Clear 69 20.6 59 15 70 70 VRB 7 11 29.96 1015 10 16 0.00 0.00
11:53 pm 23:53 Clear 69 20.6 61 16.1 75 75 SE 9 15 29.93 1014 10 16 0.00 0.00

Powered by AerisWeather